When you browse on this site, cookies collect data to enhance your experience and personalize the content and advertising you see.
Visit our Privacy Policy to learn more. By continuing to use the site, you agree to this use of cookies and data.
  • In Hungary
  • List of Countries
  • For 7 days
  • Water Temperature
  • Satellite Maps
  • Weather Map
  • News
  • Weather Widgets
  • user-avatar
    Login

    Hourly Weather Serres

    Today, 15 December, Saturday

    Time Temperature Precipitation Wind Pressure Humidity
    00:00 +8°C° 0 mm 2 mps 759 mmHg 92%
    01:00 +8°C° 0 mm 2 mps 758 mmHg 92%
    02:00 +8°C° 0 mm 2 mps 758 mmHg 93%
    03:00 +8°C° 0 mm 2 mps 758 mmHg 93%
    04:00 +8°C° 0 mm 2 mps 758 mmHg 93%
    05:00 +8°C° 0 mm 2 mps 758 mmHg 93%
    06:00 +8°C° 0 mm 2 mps 758 mmHg 93%
    07:00 +8°C° 0 mm 2 mps 757 mmHg 93%
    08:00 +8°C° 0 mm 2 mps 757 mmHg 93%
    09:00 +9°C° 0.1 mm 2 mps 757 mmHg 89%
    10:00 +10°C° 0.1 mm 2 mps 757 mmHg 86%
    11:00 +12°C° 0.1 mm 2 mps 757 mmHg 83%
    12:00 +13°C° 0.3 mm 2 mps 757 mmHg 83%
    13:00 +13°C° 0.3 mm 2 mps 756 mmHg 82%
    14:00 +14°C° 0.3 mm 2 mps 756 mmHg 82%
    15:00 +13°C° 0.5 mm 2 mps 756 mmHg 86%
    16:00 +13°C° 0.5 mm 2 mps 756 mmHg 89%
    17:00 +12°C° 0.5 mm 1 mps 756 mmHg 92%
    18:00 +12°C° 0.5 mm 2 mps 756 mmHg 93%
    19:00 +12°C° 0.5 mm 2 mps 755 mmHg 93%
    20:00 +10°C° 0.5 mm 2 mps 755 mmHg 93%
    21:00 +10°C° 0.4 mm 2 mps 755 mmHg 93%
    22:00 +10°C° 0.4 mm 2 mps 755 mmHg 94%
    23:00 +10°C° 0.4 mm 2 mps 755 mmHg 94%

    Tomorrow, 16 December, Sunday

    Time Temperature Precipitation Wind Pressure Humidity
    00:00 +10°C° 0.4 mm 2 mps 755 mmHg 94%
    01:00 +10°C° 0.4 mm 2 mps 755 mmHg 94%
    02:00 +10°C° 0.4 mm 2 mps 755 mmHg 94%
    03:00 +10°C° 0.3 mm 2 mps 755 mmHg 93%
    04:00 +10°C° 0.3 mm 2 mps 755 mmHg 93%
    05:00 +10°C° 0.3 mm 2 mps 754 mmHg 93%
    06:00 +10°C° 0.3 mm 2 mps 754 mmHg 93%
    07:00 +10°C° 0.3 mm 2 mps 755 mmHg 93%
    08:00 +10°C° 0.3 mm 2 mps 755 mmHg 93%
    09:00 +12°C° 0.4 mm 2 mps 755 mmHg 90%
    10:00 +13°C° 0.4 mm 2 mps 755 mmHg 87%
    11:00 +14°C° 0.4 mm 2 mps 755 mmHg 84%
    12:00 +13°C° 1.1 mm 2 mps 755 mmHg 84%
    13:00 +13°C° 1.1 mm 2 mps 755 mmHg 85%
    14:00 +13°C° 1.1 mm 2 mps 755 mmHg 85%
    15:00 +12°C° 1.2 mm 2 mps 756 mmHg 86%
    16:00 +12°C° 1.2 mm 2 mps 756 mmHg 87%
    17:00 +10°C° 1.2 mm 2 mps 756 mmHg 88%
    18:00 +10°C° 1.1 mm 2 mps 757 mmHg 88%
    19:00 +10°C° 1.1 mm 2 mps 757 mmHg 87%
    20:00 +9°C° 1.1 mm 2 mps 758 mmHg 86%
    21:00 +9°C° 0.3 mm 2 mps 758 mmHg 85%
    22:00 +9°C° 0.3 mm 2 mps 759 mmHg 84%
    23:00 +8°C° 0.3 mm 2 mps 759 mmHg 84%

    Day after tomorrow, 17 December, Monday

    Time Temperature Precipitation Wind Pressure Humidity
    00:00 +8°C° 0.1 mm 2 mps 759 mmHg 83%
    01:00 +8°C° 0.1 mm 2 mps 759 mmHg 83%
    02:00 +8°C° 0.1 mm 2 mps 759 mmHg 82%
    03:00 +8°C° 0.1 mm 2 mps 759 mmHg 82%
    04:00 +9°C° 0.1 mm 1 mps 759 mmHg 83%
    05:00 +9°C° 0.1 mm 1 mps 759 mmHg 83%
    06:00 +9°C° 0 mm 1 mps 759 mmHg 83%
    07:00 +9°C° 0 mm 1 mps 759 mmHg 84%
    08:00 +9°C° 0 mm 1 mps 759 mmHg 84%
    09:00 +10°C° 0.1 mm 1 mps 759 mmHg 84%
    10:00 +10°C° 0.1 mm 1 mps 759 mmHg 84%
    11:00 +11°C° 0.1 mm 1 mps 759 mmHg 84%
    12:00 +11°C° 0.4 mm 1 mps 758 mmHg 84%
    13:00 +11°C° 0.4 mm 1 mps 758 mmHg 84%
    14:00 +12°C° 0.4 mm 1 mps 757 mmHg 85%
    15:00 +11°C° 0.5 mm 1 mps 757 mmHg 87%
    16:00 +11°C° 0.5 mm 1 mps 757 mmHg 89%
    17:00 +11°C° 0.5 mm 1 mps 757 mmHg 91%
    18:00 +10°C° 0.1 mm 1 mps 758 mmHg 92%
    19:00 +10°C° 0.1 mm 1 mps 758 mmHg 92%
    20:00 +10°C° 0.1 mm 1 mps 758 mmHg 93%
    21:00 +10°C° 0 mm 1 mps 758 mmHg 93%
    22:00 +10°C° 0 mm 1 mps 758 mmHg 93%
    23:00 +10°C° 0 mm 1 mps 758 mmHg 93%

    18 December, Tuesday

    Time Temperature Precipitation Wind Pressure Humidity
    00:00 +10°C° 0 mm 1 mps 758 mmHg 92%
    01:00 +10°C° 0 mm 1 mps 758 mmHg 92%
    02:00 +10°C° 0 mm 1 mps 757 mmHg 92%
    03:00 +9°C° 0.2 mm 2 mps 757 mmHg 91%
    04:00 +9°C° 0.2 mm 2 mps 757 mmHg 91%
    05:00 +9°C° 0.2 mm 2 mps 756 mmHg 90%
    06:00 +9°C° 0.8 mm 2 mps 756 mmHg 89%
    07:00 +9°C° 0.8 mm 2 mps 756 mmHg 89%
    08:00 +9°C° 0.8 mm 3 mps 756 mmHg 88%
    09:00 +9°C° 1.3 mm 3 mps 757 mmHg 87%
    10:00 +9°C° 1.3 mm 3 mps 757 mmHg 86%
    11:00 +10°C° 1.3 mm 3 mps 757 mmHg 85%
    12:00 +10°C° 0.9 mm 3 mps 757 mmHg 83%
    13:00 +10°C° 0.9 mm 3 mps 756 mmHg 82%
    14:00 +10°C° 0.9 mm 3 mps 756 mmHg 80%
    15:00 +10°C° 0.5 mm 4 mps 756 mmHg 81%
    16:00 +10°C° 0.5 mm 4 mps 757 mmHg 81%
    17:00 +8°C° 0.5 mm 4 mps 757 mmHg 81%
    18:00 +8°C° 0.1 mm 4 mps 758 mmHg 80%
    19:00 +8°C° 0.1 mm 4 mps 758 mmHg 79%
    20:00 +8°C° 0.1 mm 4 mps 759 mmHg 78%
    21:00 +7°C° 0.1 mm 4 mps 759 mmHg 78%
    22:00 +8°C° 0.1 mm 3 mps 760 mmHg 78%
    23:00 +8°C° 0.1 mm 3 mps 760 mmHg 78%

    19 December, Wednesday

    Time Temperature Precipitation Wind Pressure Humidity
    00:00 +8°C° 0 mm 3 mps 760 mmHg 78%
    01:00 +7°C° 0 mm 3 mps 761 mmHg 78%
    02:00 +7°C° 0 mm 3 mps 761 mmHg 78%
    03:00 +5°C° 0 mm 3 mps 761 mmHg 78%
    04:00 +5°C° 0 mm 3 mps 761 mmHg 79%
    05:00 +5°C° 0 mm 3 mps 761 mmHg 79%
    06:00 +5°C° 0 mm 2 mps 762 mmHg 79%
    07:00 +5°C° 0 mm 2 mps 762 mmHg 79%
    08:00 +5°C° 0 mm 2 mps 762 mmHg 79%
    09:00 +6°C° 0 mm 2 mps 763 mmHg 73%
    10:00 +8°C° 0 mm 2 mps 763 mmHg 68%
    11:00 +10°C° 0 mm 1 mps 763 mmHg 63%
    12:00 +10°C° 0 mm 2 mps 762 mmHg 61%
    13:00 +12°C° 0 mm 2 mps 762 mmHg 60%
    14:00 +12°C° 0 mm 2 mps 761 mmHg 58%
    15:00 +11°C° 0 mm 1 mps 761 mmHg 63%
    16:00 +10°C° 0 mm 1 mps 761 mmHg 67%
    17:00 +9°C° 0 mm 1 mps 761 mmHg 72%
    18:00 +9°C° 0 mm 1 mps 762 mmHg 74%
    19:00 +8°C° 0 mm 1 mps 762 mmHg 76%
    20:00 +8°C° 0 mm 1 mps 762 mmHg 78%
    21:00 +8°C° 0 mm 1 mps 762 mmHg 80%
    22:00 +7°C° 0 mm 1 mps 762 mmHg 82%
    23:00 +7°C° 0 mm 1 mps 762 mmHg 83%

    20 December, Thursday

    Time Temperature Precipitation Wind Pressure Humidity
    00:00 +7°C° 0 mm 1 mps 762 mmHg 84%
    01:00 +7°C° 0 mm 1 mps 762 mmHg 85%
    02:00 +7°C° 0 mm 1 mps 762 mmHg 86%
    03:00 +7°C° 0 mm 1 mps 762 mmHg 86%
    04:00 +7°C° 0 mm 1 mps 762 mmHg 86%
    05:00 +6°C° 0 mm 1 mps 762 mmHg 86%
    06:00 +6°C° 0 mm 1 mps 763 mmHg 86%
    07:00 +6°C° 0 mm 1 mps 763 mmHg 86%
    08:00 +6°C° 0 mm 1 mps 763 mmHg 86%
    09:00 +8°C° 0 mm 1 mps 763 mmHg 82%
    10:00 +9°C° 0 mm 1 mps 763 mmHg 78%
    11:00 +11°C° 0 mm 1 mps 763 mmHg 74%
    12:00 +11°C° 0 mm 1 mps 763 mmHg 75%
    13:00 +11°C° 0 mm 1 mps 763 mmHg 75%
    14:00 +12°C° 0 mm 1 mps 762 mmHg 75%
    15:00 +11°C° 0 mm 1 mps 762 mmHg 80%
    16:00 +11°C° 0 mm 1 mps 762 mmHg 84%
    17:00 +10°C° 0 mm 1 mps 762 mmHg 88%
    18:00 +10°C° 0.1 mm 1 mps 763 mmHg 90%
    19:00 +10°C° 0.1 mm 1 mps 763 mmHg 91%
    20:00 +9°C° 0.1 mm 1 mps 763 mmHg 92%
    21:00 +9°C° 0.1 mm 1 mps 763 mmHg 92%
    22:00 +10°C° 0.1 mm 1 mps 763 mmHg 92%
    23:00 +9°C° 0.1 mm 2 mps 763 mmHg 92%
    Show more